Regional Weather Roundup
Issued by NWS

Home | Current Version | Previous Version | Text Only | Print | Product List | Glossary On
Versions: 1 2 3 4 5 6 7 8 9 10 11 12 13 14 15 16 17 18 19 20 21 22 23 24 25 26 27 28 29 30 31 32 33 34 35 36 37 38 39 40 41 42 43 44 45 46 47 48 49 50
000
ASUS46 KLOX 080913
RWRCA

SOUTHERN CALIFORNIA WEATHER ROUNDUP
NATIONAL WEATHER SERVICE OXNARD CALIFORNIA
100 AM PST MON FEB 08 2016

NOTE: "FAIR" INDICATES FEW OR NO CLOUDS BELOW 12,000 FEET WITH NO
SIGNIFICANT WEATHER AND/OR OBSTRUCTIONS TO VISIBILITY.

  -  STATIONS PRECEEDED BY AN ASTERISK (*) ARE NOT NWS OR FAA
     STATIONS AND ARE NOT SUBJECT TO NWS AND FAA QUALITY CONTROL.

CAZ041-042-087-081000-
LA AND ORANGE COUNTY COASTAL AREAS


CITY           SKY/WX    TMP DP  RH WIND       PRES   REMARKS
L.A. DOWNTOWN  CLEAR     58  36  43 CALM      30.12S
L.A. AIRPORT   CLEAR     57  33  40 E3        30.12S
LONG BEACH     CLEAR     56  37  49 CALM      30.12S

CITY           SKY/WX    TMP DP  RH WIND       PRES   REMARKS
FULLERTON      CLEAR     58  32  37 CALM      30.11S
HAWTHORNE      CLEAR     57  32  38 CALM      30.12F
*LOS ALAMITOS  FAIR      67  27  21 NE5       30.11F
*REDONDO BEACH   N/A     55  28  35 CALM      30.12S
SANTA ANA      CLEAR     73  20  13 E8G18     30.11S
STA MONICA APT CLEAR     64  26  23 N3        30.12F
*UCLA            N/A     70  19  14 N7        30.10S

$$

CAZ547-548-048-081000-
LA COUNTY VALLEYS AND INLAND EMPIRE


CITY           SKY/WX    TMP DP  RH WIND       PRES   REMARKS
BURBANK        CLEAR     71  20  14 E5        30.13S
VAN NUYS       CLEAR     72  21  14 N12       30.15S

CITY           SKY/WX    TMP DP  RH WIND       PRES   REMARKS
CORONA AIRPORT SUNNY     70  23  17 SE12      30.18S
*CHATSWORTH      N/A     73  27  18 N12       30.14F
CHINO          CLEAR     75  19  12 VRB5G16   30.15F
*CLAREMONT       N/A     60  22  23 N5          N/A
MARCH AFB      CLEAR     58  20  22 W9        30.19F
*NORTHRIDGE      N/A     72  16  12 NW3G9       N/A
ONTARIO        CLEAR     74  16  11 NE20G28   30.15S
*PASADENA        N/A     59  30  33 CALM        N/A
RIVERSIDE      CLEAR     71  19  14 NE12G20   30.19S
SAN BERNARDINO NOT AVBL
*SAN GABRIEL     N/A     57  34  42 NW2       30.20S
*WHITEMAN AP   NOT AVBL
*WOODLAND HILL   N/A     72  19  14 VRB6        N/A

$$

CAZ054-055-081000-
LA AND SAN BERNARDINO COUNTY MOUNTAINS


CITY           SKY/WX    TMP DP  RH WIND       PRES   REMARKS
*ACTON           N/A     62  22  21 NW14G29     N/A
*BIG BEAR AIRP SUNNY     28  19  69 CALM      30.45R
*BIG PINES       N/A     41  17  37 E3          N/A
SANDBERG       CLEAR     53  20  27 E32G47    30.33F
*WARM SPRINGS    N/A     56  41  57 E39G55      N/A

$$

CAZ028-029-059-060-099-081000-
ANTELOPE VALLEY AND SURROUNDING AREAS


CITY           SKY/WX    TMP DP  RH WIND       PRES   REMARKS
LANCASTER      CLEAR     37  24  59 N5        30.35F WCI  33
PALMDALE       CLEAR     47  24  40 E12       30.34F

CITY           SKY/WX    TMP DP  RH WIND       PRES   REMARKS
29 PALMS       CLEAR     53  19  26 W13       30.39S
BARSTOW/DAGGET CLEAR     52  23  32 S5        30.36R
BISHOP         PTCLDY    39  25  57 NW9       30.52S WCI  33
CHINA LAKE     CLEAR     54  23  30 S10       30.35S
EDWARDS AFB    CLEAR     48  21  34 NW5       30.33S
MOJAVE         CLEAR     43  27  52 NW8       30.36S
NEEDLES        CLEAR     63  18  17 N24G31    30.27S
VICTORVILLE    CLEAR     37  19  48 CALM      30.36S

$$

CAZ039-040-081000-
VENTURA AND SANTA BARBARA COUNTY COAST


CITY           SKY/WX    TMP DP  RH WIND       PRES   REMARKS
CAMARILLO      CLEAR     75  21  13 NE29G39   30.12F
NWS OXNARD       N/A     75  23  14 NE22      30.11F
OXNARD AIRPORT CLEAR     76  23  14 NE16G26   30.12F
*POINT MUGU    CLEAR     75  26  16 NE23G31   30.13F
SBA APT/GOLETA CLEAR     49  39  68 CALM      30.12F
*SANTA BARBARA   N/A     55  37  50 CALM      30.20S
*VENTURA         N/A     74  25  16 NE22      30.11F

$$

CAZ044-045-081000-
VENTURA COUNTY VALLEYS


CITY           SKY/WX    TMP DP  RH WIND       PRES   REMARKS
*SIMI VALLEY     N/A     71  27  19 NE32      30.09S
*WESTLAKE VILL   N/A     71  31  23 NE3       30.13S
*OJAI            N/A     45  36  71 CALM      30.09F
*FILLMORE        N/A     73  32  22 NE7       30.07S

$$

CAZ053-081000-
VENTURA COUNTY MOUNTAINS


CITY           SKY/WX    TMP DP  RH WIND       PRES   REMARKS
*LOCKWOOD VLY    N/A     45  18  33 N1          N/A
*ROSE VALLEY     N/A     55  27  33 MISG        N/A

$$

CAZ034-035-036-081000-
CENTRAL COAST AND SANTA YNEZ VALLEY


CITY           SKY/WX    TMP DP  RH WIND       PRES   REMARKS
SAN LUIS OBISP CLEAR     51  41  68 CALM      30.14F
SANTA MARIA    CLEAR     51  40  65 S6        30.16S

CITY           SKY/WX    TMP DP  RH WIND       PRES   REMARKS
*CAL POLY SLO    N/A     55  41  58 S3G9        N/A
*LOMPOC        CLEAR     46  36  66 E9        30.15F
*SANTA YNEZ    FAIR      50  37  62 CALM      30.17S

$$

CAZ037-038-051-081000-
SAN LUIS OBISPO COUNTY INTERIOR AND CUYAMA VALLEY


CITY           SKY/WX    TMP DP  RH WIND       PRES   REMARKS
*CUYAMA          N/A     47  32  56 E3        30.23F
PASO ROBLES    CLEAR     43  40  89 N5        30.23S

$$

CAZ032-033-061-081000-
SOUTHERN DESERTS


CITY           SKY/WX    TMP DP  RH WIND       PRES   REMARKS
BLYTHE         CLEAR     65  22  19 N17       30.19S
IMPERIAL       CLEAR     51  25  36 W10       30.15S
PALM SPRINGS   CLEAR     66  24  20 W6        30.24S
THERMAL        CLEAR     63  21  20 N3        30.17S

$$

ELSEWHERE ACROSS THE WESTERN UNITED STATES AND MEXICO


CITY           SKY/WX    TMP DP  RH WIND       PRES   REMARKS
DENVER, CO     CLOUDY    22  14  71 S10       30.36S WCI  11
GRAND CANYON,  PTCLDY    37  16  42 NE16      30.47S WCI  28
HONOLULU, HI   PTCLDY    64  54  68 NW6       30.07R
KAHULUI, MAUI  PTCLDY    66  52  59 N15       30.05S
LAKE TAHOE, CA CLEAR     26  22  84 SW5       30.54F WCI  20
LAS VEGAS, NV  CLEAR     53  23  31 E9        30.39R
MAMMOTH LAKES, FAIR      27  19  74 N3        30.59S
MEXICO CITY, M PTCLDY    43  27  52 E5        30.35F
PHOENIX, AZ    CLEAR     57  29  34 CALM      30.16S
PORTLAND, OR   CLEAR     45  40  82 NW3       30.46S
RENO, NV       CLEAR     33  27  78 CALM      30.60F
SALT LAKE CITY PTCLDY    27  23  85 SE7       30.66F WCI  19
SAN DIEGO, CA  CLEAR     60  31  33 CALM      30.11F
SAN FRANCISCO, CLEAR     56  48  74 CALM      30.20S
SAN JOSE, CA   CLEAR     54  43  66 CALM      30.19F
SEATTLE, WA    CLEAR     41  38  89 N7        30.50S
TIJUANA, MEX   CLEAR     54  30  40 CALM      30.13F

$$

STATION/POSITION TIME  TEMP    WIND        PRES    VSBY  WAVE
                       AIR SEA DIR/SP/G                  HT/PER
                 (UTC) (F)     (DEG/KT/KT) (MB)    (MI)  (FT/S)
POINT ARGUELLO B NOT AVBL
WEST SANTA BARBA 0850   62 58   50/  4/  6 1019.7F         4/13
POINT CONCEPTION NOT AVBL
EAST SANTA BARBA 0900   59 59  120/  2/  4 1020.5F
SANTA MONICA BAY 0850   65 59   80/  6/  8 1020.0F         3/14


USA.gov is the U.S. government's official web portal to all federal, state and local government web resources and services.